Weather Service Report


291 
ASUS46 KSEW 102010
RWRWA 

WASHINGTON REGIONAL WEATHER ROUNDUP
NATIONAL WEATHER SERVICE SEATTLE WA
1200 PM PST SAT DEC 10 2016

NOTE:"FAIR" INDICATES FEW OR NO CLOUDS BELOW 12,000 FEET WITH NO 
SIGNIFICANT WEATHER AND/OR OBSTRUCTIONS TO VISIBILITY.

WAZ507-509-555>559-102100-
SEATTLE, TACOMA, EVERETT, AND VICINITY
  
CITY           SKY/WX    TMP DP  RH WIND       PRES   REMARKS
EVERETT        LGT RAIN  39  36  89 SE13      29.84F                  
BOEING FIELD   LGT RAIN  43  39  86 SE9       29.85F                  
RENTON         CLOUDY    41  37  86 E8        29.85F                  
SEATAC AIRPORT CLOUDY    43  36  76 S10G21    29.84F                  
JBLM-MCCHORD   LGT RAIN  43  39  87 S13       29.84F                  
PUYALLUP       DRIZZLE   45  36  70 S10G17    29.85F                  
BREMERTON      CLOUDY    37  37 100 S9        29.86F                  
JBLM-FT LEWIS  LGT RAIN  42  39  89 SE16      29.83F                  
TACOMA NARROWS LGT RAIN  42  38  85 S12G18    29.84F                  
$$
 
WAZ001-503-506-510-514-515-102100-
NORTH INTERIOR
  
CITY           SKY/WX    TMP DP  RH WIND       PRES   REMARKS
BELLINGHAM     CLOUDY    33  31  92 NE8       29.82F                  
FRIDAY HARBOR  CLOUDY    42  38  85 SE17G23   29.79F                  
EASTSOUND      CLOUDY    41  37  87 S6        29.78F                  
PORT ANGELES   LGT RAIN  39  36  89 W3        29.75F                  
EDIZ HOOK      CLOUDY    42  37  82 NW7       29.75F                  
PORT TOWNSEND    N/A     41  37  87 SE18G25   29.79F                  
NAS WHIDBEY    CLOUDY    44  35  70 SE21G31   29.83F                  
ARLINGTON      CLOUDY    39  30  70 S6        29.87S                  
BURLINGTON     CLOUDY    41  37  87 E13       29.82F                  
$$
 
WAZ020-022-039-040-504-511-512-102100-
SOUTHWEST INTERIOR
  
CITY           SKY/WX    TMP DP  RH WIND       PRES   REMARKS
SHELTON        RAIN      37  36  96 N5        29.82F FOG              
OLYMPIA        LGT RAIN  38  37  97 SW14      29.86F                  
CHEHALIS       CLOUDY    41  37  87 S13G22    29.89S                  
KELSO          MIX PCPN  37  36  96 SE13G20   29.94F                  
VANCOUVER      CLOUDY    37  34  89 SE7       29.97F                  
SCAPPOOSE, OR  FOG       34  33  96 CALM      29.96F VSB 1/4          
PORTLAND, OR   PTSUNNY   37  33  85 SE9       29.98F                  
$$
 
WAZ021-516-517-102100-
WASHINGTON COAST
  
CITY           SKY/WX    TMP DP  RH WIND       PRES   REMARKS
FORKS          CLOUDY    41  41 100 VRB3      29.73S                  
HOQUIAM        CLOUDY    42  42 100 E8        29.81F                  
ASTORIA, OR    CLOUDY    47  41  80 S14G21    29.86F                  
$$
 
WAZ019-023-024-040-567>569-102100-
CASCADE MOUNTAINS AND COLUMBIA GORGE
  
CITY           SKY/WX    TMP DP  RH WIND       PRES   REMARKS
STAMPEDE PASS  PTSUNNY   29  27  92 CALM      29.75F                  
TROUTDALE, OR  SUNNY     34  31  88 E10       29.98F WCI  26          
THE DALLES, OR SUNNY     28  21  75 CALM      30.02F                  
$$

WAZ026-027-041>044-520-521-102100-
EAST SLOPES
  
CITY           SKY/WX    TMP DP  RH WIND       PRES   REMARKS
OMAK           CLOUDY    20  16  84 CALM      29.95F                  
WENATCHEE      SUNNY     21  18  88 CALM      29.94S                  
ELLENSBURG     CLOUDY    18  16  92 CALM      29.90S FOG              
YAKIMA         CLOUDY    20  17  88 CALM      29.96F FOG              
$$

WAZ028-034-035-102100-
COLUMBIA BASIN
  
CITY           SKY/WX    TMP DP  RH WIND       PRES   REMARKS
EPHRATA        CLOUDY    24  17  74 E5        29.95R                  
MOSES LAKE     CLOUDY    22  19  89 SE13      29.95F WCI  10          
PASCO          CLOUDY    29  26  89 E5        30.01S                  
HERMISTON, OR  SUNNY     29  21  72 S3        29.98F                  
$$

WAZ036>038-102100-
NORTHEAST WASHINGTON
  
CITY           SKY/WX    TMP DP  RH WIND       PRES   REMARKS
SPOKANE GEIGER CLOUDY    20  18  92 S6        29.90S                  
SPOKANE FELTS  CLOUDY    23  19  85 SW7       29.93S                  
FAIRCHILD AFB  CLOUDY    19  19 100 S6        29.88F                  
COEURDALENE,ID CLOUDY    24  20  84 SW7       29.91R                  
DEER PARK      CLOUDY    22  17  81 S9        29.91R                  
$$

WAZ029>033-102100-
SOUTHEAST WASHINGTON
  
CITY           SKY/WX    TMP DP  RH WIND       PRES   REMARKS
PULLMAN        CLOUDY    21  19  92 NE5       29.91S FOG              
LEWISTON, ID   CLOUDY    27  22  81 CALM      29.96S                  
WALLA WALLA    SUNNY     23  17  78 E5        29.94F                  
PENDLETON, OR  CLOUDY    25  21  85 SE7       29.92F                  
$$
  

Return to Home page


Western Regional Climate Center, wrcc@dri.edu